Theta_e
306 306 305 307 307 308 309 310 312 314 316 318 317 317 319 317 314 314 314 314 314 313 312 311 313 313 314 313 315 315 316 317 322 325 323 321 319 318 319 318 319 321 321 322 321 319 322
304 305 305 305 306 306 307 308 309 310 314 315 316 314 316 318 316 313 313 313 313 313 312 311 312 313 313 308 308 309 314 315 323 323 322 321 319 317 320 319 318 317 318 317 318 319 319
303 303 303 303 304 304 305 306 307 308 310 312 314 316 314 317 316 314 312 314 313 312 312 312 312 312 312 311 310 311 310 312 315 322 321 321 320 320 319 321 318 319 320 318 318 318 318
303 302 302 303 303 303 305 304 305 306 308 310 311 315 314 316 316 315 313 314 311 313 311 310 312 311 308 308 308 310 311 311 312 315 313 316 320 320 321 318 318 321 320 321 317 317 318
303 302 302 301 302 302 302 304 305 305 306 308 310 311 314 315 316 315 313 312 312 313 311 311 312 310 308 308 311 309 310 310 311 312 314 313 314 315 316 318 320 320 321 320 318 317 319
301 300 300 301 301 301 302 302 304 305 305 306 308 310 313 314 315 315 312 311 313 311 310 310 312 311 309 311 311 311 310 311 310 310 311 312 314 315 315 317 318 318 320 319 319 318 316
301 300 300 301 301 300 300 301 302 304 305 305 306 309 310 314 315 315 311 312 311 311 310 309 312 312 310 310 311 311 311 311 310 309 313 311 316 318 317 313 315 316 318 320 318 317 317
301 301 301 301 301 301 300 301 302 303 304 305 306 308 309 313 315 315 311 312 310 308 310 309 310 311 311 311 312 311 311 312 312 312 310 312 314 313 312 313 315 315 316 316 314 313 315
302 302 301 301 301 300 300 300 301 303 304 304 306 307 309 311 314 314 311 310 309 309 308 309 309 310 311 311 313 313 310 310 312 311 311 312 311 310 312 311 313 313 313 312 312 312 312
301 301 301 301 300 300 300 300 301 302 303 303 304 304 306 308 313 313 311 310 310 308 299 305 311 311 311 312 313 312 311 311 312 312 311 313 311 311 311 312 311 313 311 313 314 314 314
301 301 301 301 300 300 300 301 302 302 302 303 304 304 304 307 311 312 311 310 309 304 301 308 312 310 312 311 312 311 311 312 314 313 313 314 312 312 314 312 310 312 311 313 314 315 315
301 301 301 301 300 300 300 301 301 301 302 303 303 303 304 306 311 312 310 310 308 300 305 312 311 313 314 313 313 312 313 312 312 314 313 312 309 311 310 310 310 312 312 313 314 316 317
301 301 301 300 300 300 300 300 301 302 302 301 301 304 305 306 311 310 309 308 308 305 307 311 312 311 312 313 313 314 314 316 316 316 314 315 314 312 312 312 311 312 316 317 317 318 315
300 301 300 300 300 300 299 300 302 301 301 304 305 306 306 305 306 309 309 304 306 307 309 311 309 310 311 311 312 313 314 315 314 315 315 313 311 312 312 312 312 313 314 316 318 312 310
300 300 300 300 300 300 298 299 302 303 303 305 305 306 305 303 307 309 308 309 307 306 310 312 311 311 312 312 312 313 314 313 311 313 315 315 311 311 312 311 312 315 316 312 317 316 318
300 300 300 300 299 299 298 300 302 303 303 305 304 305 306 303 309 308 308 308 308 309 310 310 311 311 313 313 313 314 312 307 311 310 308 310 313 309 310 311 312 314 312 315 315 317 318
299 299 299 299 299 298 298 300 302 304 302 305 303 306 307 309 307 310 311 308 309 311 310 311 311 311 311 313 313 312 309 307 308 308 308 310 312 310 312 314 313 316 316 316 315 316 311
299 299 299 299 298 298 298 301 302 304 302 304 305 306 309 309 308 310 312 309 311 312 311 311 311 312 312 311 312 310 309 308 307 308 311 310 313 313 310 311 311 311 312 313 314 310 311
299 299 298 299 298 298 298 301 302 304 302 306 308 308 310 307 309 311 311 311 311 312 312 312 312 312 313 314 314 311 308 308 308 309 310 310 314 314 313 312 312 313 313 312 312 312 310
298 298 298 298 298 297 298 300 301 303 303 306 306 307 310 309 309 311 311 312 312 311 312 312 313 313 312 316 313 313 310 309 308 309 310 310 315 314 315 315 312 314 313 313 313 315 312
298 298 298 298 298 298 297 299 301 303 303 307 308 306 306 308 310 310 310 311 312 314 312 312 314 314 315 318 315 314 310 310 310 310 311 312 314 313 314 314 312 314 314 315 314 312 312
298 298 298 298 298 298 297 299 300 302 303 308 309 311 310 309 310 310 312 311 312 314 314 314 315 313 314 316 313 311 311 310 311 314 315 314 313 314 315 314 316 315 316 315 313 312 312
298 298 298 298 298 296 296 299 300 302 303 306 306 310 310 311 311 312 312 312 313 313 313 313 312 314 315 315 313 314 308 309 311 314 316 315 313 317 319 317 317 321 316 316 314 313 312
298 298 298 298 298 296 296 298 300 302 303 305 306 309 312 313 312 312 313 313 313 314 315 314 313 314 314 313 313 311 309 310 311 312 313 316 315 316 320 322 328 322 321 315 315 314 313
298 298 298 298 298 297 296 298 299 302 302 304 306 309 312 311 312 313 312 312 312 313 314 314 313 312 313 314 317 315 316 314 313 313 313 314 317 321 324 323 323 318 322 318 317 317 313
298 298 298 298 298 298 297 298 299 301 301 303 306 309 309 312 311 311 311 314 315 314 314 314 311 310 313 317 317 318 316 315 317 317 311 313 314 319 321 323 324 316 311 318 318 325 318
297 298 298 298 298 298 298 297 298 300 301 303 306 309 309 310 310 311 312 313 313 313 313 312 312 312 312 316 320 316 319 316 319 318 320 319 319 321 323 321 317 314 311 317 324 319 310
298 297 297 298 298 298 298 297 298 300 301 301 305 309 310 311 311 310 309 311 312 310 313 310 313 313 315 318 320 318 317 315 316 314 317 317 319 321 320 320 316 311 312 315 311 308 310
298 297 298 298 298 298 297 296 298 300 301 300 305 310 311 310 310 310 310 309 310 310 311 310 314 314 315 319 316 319 322 316 314 317 313 318 315 316 315 314 310 311 311 310 307 308 308
Wind_Speed
25 25 27 27 27 28 28 28 28 29 26 23 21 20 20 17 13 12 12 9 6 4 4 5 4 2 2 0 8 4 2 2 6 18 13 6 3 4 4 3 0 4 3 4 4 7 6
26 27 27 28 28 28 29 27 27 27 28 25 22 22 20 21 17 12 13 10 8 6 5 4 3 2 1 3 5 7 5 6 7 16 13 8 6 5 3 3 3 1 2 5 6 6 5
26 27 27 28 28 29 29 28 28 28 25 30 23 24 22 23 19 15 14 13 9 7 5 4 3 2 1 11 2 1 4 1 5 9 4 8 5 3 3 3 1 2 4 6 6 6 7
27 28 30 30 30 29 29 30 29 28 27 27 29 22 24 23 22 17 15 14 11 9 6 4 3 2 6 5 5 11 5 2 2 5 4 5 9 4 2 4 3 3 2 3 5 4 6
27 29 30 31 32 31 30 30 30 30 28 28 28 28 23 23 23 20 16 14 12 10 6 4 3 3 7 4 4 7 10 3 2 6 3 0 5 4 3 3 3 5 5 5 6 3 5
27 29 30 32 32 31 32 31 31 30 29 28 28 27 23 23 23 22 17 14 8 8 5 3 3 2 4 2 2 3 9 10 3 5 3 3 3 3 3 4 5 4 4 3 8 3 5
25 28 29 29 32 33 34 33 32 30 29 27 28 26 27 22 22 25 21 13 4 2 5 7 4 3 1 2 2 3 6 9 3 4 5 2 5 7 10 7 3 1 5 11 6 8 8
26 28 29 30 31 32 34 32 31 30 29 28 26 26 25 19 20 30 30 4 8 5 3 13 7 7 6 4 1 2 12 5 4 5 4 1 10 7 5 5 7 8 10 13 13 13 11
28 31 32 31 31 32 33 32 32 31 30 24 23 22 21 17 23 36 32 16 17 8 1 4 6 7 3 5 4 4 8 4 3 5 6 7 3 7 10 5 7 9 10 8 12 8 13
31 32 33 32 33 33 35 32 31 29 31 28 19 22 24 20 16 31 18 20 17 10 4 4 4 5 6 5 5 10 15 5 3 9 5 9 11 7 5 6 8 14 8 13 13 6 7
31 33 33 32 33 35 34 33 29 29 31 27 23 26 28 24 8 17 21 25 17 7 2 3 5 1 7 9 2 2 6 4 7 8 6 6 5 7 15 16 7 5 6 9 10 8 8
31 33 33 32 32 34 34 32 31 34 31 31 29 35 29 23 12 28 38 29 11 6 6 6 4 5 6 4 2 3 5 3 2 10 12 11 4 4 6 8 11 3 5 4 3 7 10
32 33 33 32 32 34 34 31 33 33 34 37 52 37 22 17 4 37 47 13 5 4 0 6 5 6 6 6 5 5 6 8 6 4 8 4 15 4 3 4 7 10 2 2 5 6 8
33 34 34 32 32 33 33 33 35 42 40 32 20 13 16 20 22 47 28 5 4 6 5 5 5 8 6 6 4 7 4 7 11 5 1 4 5 12 11 14 7 15 11 5 4 4 4
34 34 33 32 31 33 33 33 36 33 31 14 2 12 10 21 25 40 13 3 8 7 7 9 11 4 5 6 3 6 8 6 7 15 6 3 4 2 7 8 8 5 10 13 6 4 4
33 34 32 31 30 31 32 34 38 35 33 14 5 1 6 15 45 22 9 7 4 4 6 5 5 5 6 7 8 7 6 4 6 12 7 2 6 6 4 8 9 7 1 3 5 4 4
34 34 32 30 28 30 31 34 37 35 38 1 3 2 9 25 33 8 7 3 3 4 5 4 4 5 4 6 8 5 5 4 7 5 14 5 4 1 5 10 12 8 5 6 2 4 4
34 33 32 29 27 29 29 33 35 34 32 4 2 2 16 40 7 4 5 6 4 5 2 3 3 4 5 7 7 6 7 5 5 8 10 9 3 6 14 5 14 14 10 15 6 5 4
33 33 31 29 27 29 29 32 35 33 27 10 1 2 26 35 4 6 5 4 3 4 3 3 3 2 4 6 4 8 4 6 9 10 11 10 5 4 4 1 6 10 16 18 15 1 10
32 32 29 28 28 28 29 32 35 35 29 19 1 3 4 5 2 9 9 5 4 4 5 3 2 5 4 5 8 3 3 5 13 10 9 12 4 9 12 13 4 7 16 17 16 9 19
31 32 29 28 27 27 28 33 36 38 36 2 2 3 2 5 4 8 4 9 6 5 3 7 5 9 6 5 5 6 6 8 5 10 8 8 8 13 22 22 13 11 13 15 19 22 11
31 31 29 27 26 26 27 32 36 37 34 5 3 3 2 6 11 6 5 6 11 6 8 5 7 7 9 5 7 6 6 6 6 3 8 4 6 7 19 18 18 16 15 17 24 21 21
31 30 28 26 25 26 25 29 33 33 25 4 7 3 3 8 9 7 6 6 9 6 7 5 11 9 8 13 16 15 6 6 3 3 8 4 3 3 8 6 5 3 16 19 16 21 19
30 29 28 24 23 25 25 26 29 32 26 15 8 3 3 5 8 9 9 7 8 11 3 2 9 7 4 2 5 3 6 11 10 13 12 5 3 3 5 7 3 5 5 15 19 13 18
30 28 27 24 23 24 23 26 28 31 30 27 7 2 2 3 7 11 8 7 5 2 2 6 8 4 4 0 2 3 2 3 7 9 12 13 4 4 3 5 5 6 1 4 8 10 17
28 27 26 24 23 24 26 27 28 31 32 31 3 3 1 4 6 5 5 4 3 4 4 5 1 2 3 2 2 4 4 4 3 3 1 3 2 3 3 4 4 3 5 5 5 4 13
27 26 24 23 22 21 23 25 25 27 29 28 6 8 1 3 2 4 3 6 4 2 2 2 3 2 5 4 4 4 2 2 2 2 3 3 3 7 4 3 7 4 3 5 2 3 6
26 23 22 22 21 22 23 24 24 27 28 29 12 6 2 2 1 2 3 4 3 2 3 3 1 3 2 4 4 3 4 4 0 3 4 6 4 3 2 2 4 3 3 1 3 3 3
25 21 22 21 20 20 22 22 22 23 25 24 5 4 5 3 1 1 4 3 3 5 4 4 2 3 2 3 2 2 3 2 4 3 0 3 5 3 6 5 3 3 4 5 2 3 3
Wind_Direction
354 353 348 346 343 341 336 330 331 339 339 282 273 263 249 239 240 234 242 243 247 250 271 282 287 269 151 238 250 274 7 37 217 205 184 142 142 150 197 210 239 210 236 264 295 309 281
352 350 347 345 343 338 336 331 328 326 334 335 280 270 262 237 234 230 229 239 231 231 245 265 266 232 129 248 282 252 233 55 134 179 188 151 183 194 227 234 177 233 262 256 268 256 270
350 349 344 340 339 336 333 332 328 327 321 334 325 272 259 243 235 222 222 225 221 214 229 241 253 203 236 246 221 215 192 175 101 170 147 200 171 166 169 236 240 255 303 297 225 222 248
349 346 343 340 336 332 333 330 326 324 319 315 321 309 261 245 233 221 211 215 215 202 205 215 216 181 247 243 280 227 232 211 216 160 109 134 202 188 242 338 329 264 176 311 313 244 245
347 344 341 338 335 332 326 328 326 321 320 315 316 313 272 249 231 217 209 207 211 202 189 195 205 167 260 300 234 245 216 168 187 194 193 87 149 178 170 164 290 202 247 240 296 282 259
343 341 339 336 333 331 329 323 322 319 315 314 315 317 308 246 231 212 197 185 184 163 166 194 251 267 259 259 190 160 179 167 127 121 102 178 195 196 159 178 226 223 226 241 249 261 352
341 338 337 335 331 328 325 322 317 319 313 311 312 314 309 250 236 206 168 141 130 194 212 197 203 223 306 312 153 107 157 127 87 89 175 198 207 210 203 212 284 38 272 270 275 300 309
337 335 333 331 331 328 323 318 315 316 313 307 308 313 306 257 243 197 174 187 159 149 212 233 239 253 255 14 1 114 153 131 136 178 129 38 242 229 204 211 237 254 270 273 280 261 261
335 332 329 329 327 324 322 315 316 316 315 306 303 316 310 279 258 174 176 177 148 131 66 267 209 227 189 175 240 205 161 132 151 154 193 209 191 217 197 196 226 237 241 260 259 299 278
331 330 327 331 326 323 320 319 313 318 317 313 301 313 303 294 283 164 171 155 141 119 58 247 204 240 163 155 267 198 178 145 169 196 188 250 247 234 193 208 190 257 200 238 255 251 258
331 328 328 327 324 324 322 319 314 318 317 311 289 306 307 305 286 164 154 155 147 77 21 158 146 120 160 165 133 59 178 194 190 184 166 223 181 214 228 230 170 252 181 212 230 239 269
329 328 327 325 324 323 322 322 322 319 312 304 284 298 295 297 258 159 156 153 130 59 249 172 125 166 153 192 149 121 178 234 23 230 227 240 188 201 212 230 198 166 231 252 247 234 247
331 330 329 326 324 325 325 327 323 322 317 295 288 281 257 240 314 153 147 148 84 167 129 171 171 164 182 165 205 182 172 193 187 197 225 233 238 208 213 190 193 217 199 237 222 211 247
330 330 330 328 325 329 331 328 326 323 309 306 286 231 217 219 281 149 151 91 128 178 184 127 134 144 172 169 232 192 193 223 218 216 274 232 287 209 186 212 188 198 197 221 239 230 258
329 329 330 329 328 332 333 326 328 330 331 315 133 172 191 213 210 158 152 164 187 192 157 146 144 141 189 188 201 188 224 235 223 194 208 222 260 295 200 210 186 177 212 222 266 230 247
334 334 332 331 331 334 332 329 332 347 338 327 142 136 163 238 162 183 150 173 154 144 121 132 136 185 160 167 179 185 200 220 221 205 173 264 271 201 199 202 249 200 299 169 205 237 243
334 333 333 333 333 335 332 332 338 345 342 138 96 108 185 171 160 179 179 162 147 145 111 140 165 152 182 159 182 189 238 256 193 174 177 199 227 340 152 212 192 197 196 213 240 198 214
333 335 333 334 335 335 333 335 341 347 344 332 136 115 167 151 155 197 166 151 131 132 103 98 101 100 165 158 188 213 230 234 153 153 182 199 255 241 237 211 211 216 226 212 208 207 227
336 334 335 334 336 336 334 338 342 345 339 322 224 166 159 153 176 167 155 101 105 126 142 115 118 190 179 168 212 212 212 248 164 178 180 165 218 280 284 301 203 219 220 222 232 156 227
336 335 336 336 337 338 336 338 341 343 332 323 114 42 105 192 262 147 155 150 107 100 127 139 137 160 164 207 225 271 243 278 180 201 184 174 223 218 250 247 195 213 218 211 206 226 243
338 337 338 339 339 343 337 338 343 346 338 177 56 167 203 178 196 151 126 157 159 144 181 184 195 217 191 206 205 234 230 276 194 215 196 179 251 237 253 262 244 234 212 191 209 219 214
340 339 338 338 340 343 339 340 347 350 351 4 155 155 165 155 151 140 139 181 179 149 170 195 224 215 215 236 208 212 208 190 236 152 163 197 273 287 284 284 266 227 216 207 217 224 240
340 339 339 342 340 344 341 342 345 351 1 325 346 279 122 147 150 156 190 166 187 155 198 194 199 221 231 239 238 250 218 251 263 260 217 206 252 293 286 311 313 149 223 219 217 220 220
339 339 338 341 340 343 340 341 342 348 354 327 269 272 121 151 176 191 153 180 189 200 208 213 209 193 179 117 317 273 255 254 255 253 227 223 206 237 283 302 329 259 291 205 216 231 220
338 339 341 339 338 342 340 342 344 347 349 342 286 259 91 117 178 172 153 186 132 89 258 265 254 198 104 218 252 272 275 303 245 227 212 205 225 278 303 311 283 305 86 170 175 244 209
335 336 340 339 340 339 341 343 345 348 349 346 299 355 330 126 196 132 168 146 162 189 180 213 57 68 124 217 211 215 220 236 291 307 101 162 281 275 327 313 319 311 352 106 81 289 200
334 332 338 338 339 338 339 341 341 344 346 349 309 3 276 107 42 131 156 183 158 155 153 141 164 201 190 200 195 216 232 282 247 266 145 182 216 239 257 275 285 272 335 115 57 281 319
335 334 336 338 336 337 339 341 341 345 348 351 299 346 9 85 60 78 136 133 121 179 164 167 145 186 200 220 194 176 220 224 171 235 196 180 170 216 172 260 313 334 17 264 233 289 293
337 334 335 337 337 335 338 338 338 342 347 351 321 348 6 58 222 260 241 210 208 189 141 183 198 149 255 239 196 173 202 185 170 271 306 249 186 194 176 215 232 233 265 303 302 286 341